Regional Weather Roundup
Issued by NWS Upton, NY

Current Version | Previous Version | Text Only | Print | Product List | Glossary On
Versions: 1 2 3 4 5 6 7 8 9 10 11 12 13 14 15 16 17 18 19 20 21 22 23 24 25 26 27 28 29 30 31 32 33 34 35 36 37 38 39 40 41 42 43 44 45 46 47 48 49 50
835
ASUS41 KOKX 191305
RWROKX

Regional Weather Roundup
National Weather Service New York NY
900 AM EDT THU APR 19 2018

Note: "FAIR" indicates few or no clouds below 12,000 feet with no
significant weather and/or obstructions to visibility.

NYZ071-072-176-178-NJZ106-104-191400-
New York City Metro Area

CITY           SKY/WX    TMP DP  RH WIND       PRES   REMARKS
Central Park   CLOUDY    43  38  82 VRB7G18   29.72R
Bronx Bot Gard   N/A     41  37  87 N6        29.71
Bronx Lehman C   N/A     41  37  87 N13         N/A
LaGuardia Arpt CLOUDY    46  38  73 N15       29.69R
Queens College   N/A     41  37  87 N15         N/A
Kennedy Intl   PTSUNNY   44  41  89 NW18      29.68R
Breezy Point     N/A     45 N/A N/A N12         N/A
Brooklyn Coll    N/A     45  39  81 NW8         N/A
Staten Island    N/A     43  37  81 N16         N/A
Newark/Liberty PTSUNNY   44  40  85 N20       29.70R
Teterboro      CLOUDY    43  38  82 N12G24    29.70R
$$

NYZ177-179-078>081-191400-
Long Island New York

CITY           SKY/WX    TMP DP  RH WIND       PRES   REMARKS
Jones Beach      N/A     43 N/A N/A NE13        N/A
Wantagh          N/A     45  39  81 N9          N/A
Hempstead        N/A     43  39  87 N12       29.68
Matinecock Pt    N/A     41 N/A N/A N16         N/A
Farmingdale    FAIR      43  40  89 N12       29.64F
MacArthur/ISP  LGT RAIN  43  40  89 E12G23    29.58F
Stony Brook      N/A     41  39  93 N7          N/A
Shirley        CLOUDY    42  40  92 VRB5      29.62F
Mt Sinai Harb    N/A     41 N/A N/A NE13        N/A
Westhampton    LGT RAIN  42  39  89 E7        29.65F
East Hampton   CLOUDY    41  39  91 E3        29.67F
Southold         N/A     41  39  93 E8          N/A
Montauk          N/A     44  40  85 NE6       29.70F
$$

NYZ052-065-067-191400-
Hudson Valley

CITY           SKY/WX    TMP DP  RH WIND       PRES   REMARKS
White Plains   PTSUNNY   40  37  89 N13       29.69R WCI  32
Larchmont Harb   N/A     39 N/A N/A NW14G20     N/A  WCI  31
Croton On Huds   N/A     39 N/A N/A W5          N/A
Somers           N/A     37  36  93 N5          N/A  WCI  34
Brewster         N/A     36  34  93 N8          N/A  WCI  29
Newburgh       CLOUDY    36  36 100 VRB6      29.72  WCI  31
Montgomery     CLOUDY    36  34  92 N8        29.72F WCI  30
Otisville        N/A     34  34 100 N2          N/A
Warwick          N/A     36  36 100 NW5         N/A  WCI  32
Suffern          N/A     37  36  93 N5          N/A  WCI  34
Poughkeepsie   CLOUDY    36  33  89 N7        29.72S WCI  30
Albany         DRIZZLE   37  31  78 CALM      29.72F
$$

NJZ001-105-106-008-010-013-015-019>022-104-191400-
New Jersey

CITY           SKY/WX    TMP DP  RH WIND       PRES   REMARKS
Newark/Liberty PTSUNNY   44  40  85 N20       29.70R
Teterboro      CLOUDY    43  38  82 N12G24    29.70R
Caldwell       CLOUDY    41  38  89 N7        29.72R
Somerville     PTSUNNY   43  40  89 N7        29.69R
Linden         PTSUNNY   44  39  82 N12G17    29.70R
Perth Amboy      N/A     43 N/A N/A N14G21      N/A
Sussex         CLOUDY    38  35  89 CALM      29.72R
Andover          N/A     38  35  89 VRB6      29.71R WCI  33
Trenton        FAIR      44  39  82 N15       29.68R
Millville      PTSUNNY   54  37  52 NE5       29.64R
Atlantic City  FAIR      56  40  55 E15       29.62R
Wrightstown    PTSUNNY   51  38  60 N10       29.64R
Toms River     FAIR      54  37  52 E3        29.64R
Belmar         PTSUNNY   50  39  66 NW14      29.67R
$$

PAZ047>061-062-071-191400-
Eastern Pennsylvania

CITY           SKY/WX    TMP DP  RH WIND       PRES   REMARKS
Philadelphia   CLOUDY    51  36  56 NW13      29.69R
Allentown      CLOUDY    42  36  79 NE8       29.70F
Scranton       CLOUDY    35  33  92 N5        29.72S FOG     WCI  31
$$

CTZ002-004>006-009-010-012-RIZ004-006-007-MAZ004-011-015-191400-
Southern New England

 In CT

CITY           SKY/WX    TMP DP  RH WIND       PRES   REMARKS
Bradley Intl   LGTSLEET  35  34  96 NE8       29.70F WCI  29
Hartford       LGT RAIN  39  36  89 N7        29.70F WCI  34
Danbury        CLOUDY    38  35  89 N8        29.70S WCI  32
Wtrbury/Oxford DRIZZLE   36  35  96 N9        29.69F WCI  29
Norwalk Harbor   N/A     37 N/A N/A N12         N/A  WCI  30
Bridgeport     LGT RAIN  41  38  89 N13       29.68F
Meriden        CLOUDY    38  36  92 N7        29.68F WCI  33
New Haven      LGT RAIN  41  38  89 N12       29.66F
Chester        LGT RAIN  39  37  93 NE7       29.67S WCI  34
Groton         LGT RAIN  40  39  97 N7        29.69F FOG
Willimantic    LGT RAIN  38  36  92 N6        29.72F FOG     WCI  33

 In RI

CITY           SKY/WX    TMP DP  RH WIND       PRES   REMARKS
Providence     LGT RAIN  40  39  97 N6        29.71F
Block Island   LGT RAIN  41  39  93 NE7       29.69F
Westerly       LGT RAIN  41  40  96 NE5       29.70F FOG

In MA

CITY           SKY/WX    TMP DP  RH WIND       PRES   REMARKS
Boston         LGTSLEET  37  33  85 NW6       29.73  FOG     WCI  32
Worcester      LGT SNOW  32  31  96 W5        29.71R VSB 3/4 WCI  27
Westfield      LGT SNOW  33  32  96 W5        29.74S FOG     WCI  29
Provincetown   LGT RAIN  39  37  92 CALM      29.74F FOG
Nantucket      LGT RAIN  43  43 100 NE10      29.70F
$$

ANZ330-335-338-340-345-350-353-355-191400-
Coastal Marine Observations


STATION/POSITION TIME  SKY/WX   TEMP    WIND        PRES    VSBY  WAVE
                                AIR SEA DIR/SP/G                  HT/PER
                 (UTC)          (F)     (DEG/KT/KT) (MB)    (MI)  (FT/S)
NY Harb Entrance 1250            44 45  100/ 14/ 19 1002.1          2/ 8
20 S Fire Island 1250            43 42  100/ 16/ 17 1003.5          2/ 8
23 SSW Montauk P 1250            42 42   30/ 12/ 14 1005.3          3/ 8
15 E Barnegat Li 1230               44                N/A           3/ 3
Hudson Canyon    1250            46 45   10/ 21/ 25 1002.5          3/ 3
Kings Point      1230            41 44   60/ 14/ 17 1005.4
Execution Rocks  NOT AVBL
Western LI Sound NOT AVBL
Central LI Sound 1230            41      60/  8/ 10   N/A           1
Robbins Reef     1242            44     340/ 17/ 20 1005.1
$$


>>>>>>>>>>>>>>>>>>>>>>>>>>>> KEY <<<<<<<<<<<<<<<<<<<<<<<<<<<
>                                                          <
>     SKY/WX - Sky Condition/Present Weather               <
>     TMP    - Temperature in Fahrenheit                   <
>     DP     - Dew Point in Fahrenheit                     <
>     RH     - Relative Humidity in Percent                <
>     WIND   - Direction (from) and Speed in MPH           <
>     PRES   - Mean Sea Level Pressure (inches of Hg)      <
>     WCI    - Wind Chill Index                            <
>     VSB    - Visibility in Miles                         <
>     HX     - Heat Index                                  <
>     TC     - Temperature in Celsius                      <
>     VRB    - Varibale Wind Direction                     <
>                                                          <
>>>>>>>>>>>>>>>>>>>>>>>>>>>> KEY <<<<<<<<<<<<<<<<<<<<<<<<<<<




USA.gov is the U.S. government's official web portal to all federal, state and local government web resources and services.